Location: Arrodets-la-Barthe
(43.0306°N, 0.2829°E)
Time: 23:50:43
(UTC+00:00)

Iridium 4 Rocket - Pass Details

Date: 30 May 2022
Orbit: 585 x 902 km, 86.9° (Epoch: 03 July)

Event Time Altitude Azimuth Distance (km) Brightness Sun altitude
Rises 22:32:23 0° 357° (N) 3,042 7.9 -22.3°
Reaches altitude 10° 22:34:34 10° 357° (N) 2,167 6.9 -22.4°
Maximum altitude 22:39:24 86° 269° (W) 753 3.4 -22.7°
Enters shadow 22:40:31 56° 186° (S) 895 3.5 -22.8°
